Tracking 29892 objects as of 21-Nov-2024
HD Live streaming from Space Station
objects crossing your sky now

STARLINK-31349

Track STARLINK-31349 now!
10-day predictions
STARLINK-31349 is classified as:


NORAD ID: 59317
Int'l Code: 2024-056X
Perigee: 450.8 km
Apogee: 451.7 km
Inclination: 43.0 °
Period: 93.5 minutes
Semi major axis: 6822 km
RCS: Unknown
Launch date: March 24, 2024
Source: United States (US)
Launch site: AIR FORCE EASTERN TEST RANGE (AFETR)
Your satellite tracking list
Your tracking list is empty




NASA's NSSDC Master Catalog

Two Line Element Set (TLE):
1 59317U 24056X   24325.66586324 -.00001042  00000-0 -17699-4 0  9993
2 59317  43.0008  45.4827 0000636 336.3268  23.7559 15.40676891 38524
Source of the keplerian elements: AFSPC